DAL763 KLGA-KBOS

Flight info

Callsign DAL763
Flight time N/A
Altitude 25000
Route DCT MERIT ROBUC3
Aircraft A20B/M-L/S

Departure

Time 2026-05-04 23:32
Airport LaGuardia Airport (KLGA)

Arrival

Time N/A
Airport Boston Logan International Airport (KBOS)
Time Latitude Longitude Altitude Speed Heading
2026-05-04 23:14 40.77627 -73.87165 17 ft 0 kts 150°
2026-05-04 23:22 40.77630 -73.87167 17 ft 2 kts 152°
2026-05-04 23:22 40.77651 -73.87174 19 ft 3 kts 200°
2026-05-04 23:22 40.77664 -73.87153 17 ft 3 kts 282°
2026-05-04 23:23 40.77666 -73.87152 19 ft 4 kts 303°
2026-05-04 23:23 40.77677 -73.87166 17 ft 0 kts 319°
2026-05-04 23:28 40.77677 -73.87167 18 ft 1 kts 319°
2026-05-04 23:28 40.77689 -73.87180 18 ft 5 kts 319°
2026-05-04 23:28 40.77750 -73.87256 17 ft 19 kts 313°
2026-05-04 23:29 40.77770 -73.87341 18 ft 3 kts 276°
2026-05-04 23:29 40.77773 -73.87371 18 ft 1 kts 283°
2026-05-04 23:29 40.77784 -73.87391 20 ft 3 kts 330°
2026-05-04 23:29 40.77821 -73.87404 18 ft 5 kts
2026-05-04 23:30 40.77898 -73.87408 17 ft 14 kts 319°
2026-05-04 23:30 40.77978 -73.87561 15 ft 14 kts 304°
2026-05-04 23:30 40.78051 -73.87712 16 ft 20 kts 302°
2026-05-04 23:30 40.78123 -73.87848 16 ft 14 kts 327°
2026-05-04 23:31 40.78211 -73.87835 13 ft 8 kts 53°
2026-05-04 23:31 40.78184 -73.87749 10 ft 13 kts 129°
2026-05-04 23:31 40.78167 -73.87716 9 ft 0 kts 122°
2026-05-04 23:31 40.78059 -73.87490 13 ft 68 kts 122°
2026-05-04 23:32 40.77682 -73.86711 14 ft 130 kts 123°
2026-05-04 23:32 40.77146 -73.85563 306 ft 155 kts 122°
2026-05-04 23:32 40.76766 -73.84192 895 ft 165 kts 103°
2026-05-04 23:32 40.76783 -73.82612 1475 ft 180 kts 83°
2026-05-04 23:33 40.77167 -73.80997 2114 ft 188 kts 69°
2026-05-04 23:33 40.77783 -73.79437 2678 ft 200 kts 61°
2026-05-04 23:33 40.78583 -73.77816 3098 ft 222 kts 51°
2026-05-04 23:33 40.79668 -73.76229 3615 ft 243 kts 41°
2026-05-04 23:34 40.81102 -73.74944 4326 ft 255 kts 25°
2026-05-04 23:34 40.82722 -73.73846 5003 ft 274 kts 24°
2026-05-04 23:34 40.84481 -73.72685 5770 ft 286 kts 23°
2026-05-04 23:34 40.86263 -73.71502 6792 ft 287 kts 23°
2026-05-04 23:35 40.88049 -73.70306 7842 ft 287 kts 23°
2026-05-04 23:35 40.89759 -73.68880 8823 ft 294 kts 34°
2026-05-04 23:35 40.91402 -73.67015 9060 ft 329 kts 39°
2026-05-04 23:35 40.93164 -73.64855 9188 ft 359 kts 39°
2026-05-04 23:36 40.94995 -73.62644 9299 ft 353 kts 39°
2026-05-04 23:36 40.96772 -73.60554 9400 ft 331 kts 38°
2026-05-04 23:36 40.98454 -73.58620 9512 ft 309 kts 37°
2026-05-04 23:36 41.00042 -73.56822 9621 ft 296 kts 36°
2026-05-04 23:37 41.01639 -73.55036 9754 ft 301 kts 36°
2026-05-04 23:37 41.03233 -73.53254 9864 ft 299 kts 36°
2026-05-04 23:37 41.04825 -73.51473 9968 ft 300 kts 36°
2026-05-04 23:37 41.06430 -73.49675 10001 ft 302 kts 36°
2026-05-04 23:38 41.08027 -73.47881 10008 ft 313 kts 36°
2026-05-04 23:38 41.09788 -73.45915 10003 ft 343 kts 37°
2026-05-04 23:38 41.11627 -73.43849 10003 ft 347 kts 37°
2026-05-04 23:38 41.13459 -73.41778 10005 ft 345 kts 37°
2026-05-04 23:39 41.15295 -73.39702 10001 ft 347 kts 37°
2026-05-04 23:39 41.17143 -73.37614 10161 ft 350 kts 37°
2026-05-04 23:39 41.19012 -73.35503 10847 ft 353 kts 36°
2026-05-04 23:39 41.20884 -73.33385 11727 ft 356 kts 36°
2026-05-04 23:40 41.22768 -73.31257 12483 ft 363 kts 36°
2026-05-04 23:40 41.24708 -73.29064 13278 ft 368 kts 36°
2026-05-04 23:40 41.26669 -73.26844 14052 ft 372 kts 37°
2026-05-04 23:40 41.28653 -73.24594 14795 ft 375 kts 37°
2026-05-04 23:41 41.30648 -73.22329 15528 ft 380 kts 37°
2026-05-04 23:41 41.32661 -73.20023 16240 ft 383 kts 37°
2026-05-04 23:41 41.34672 -73.17717 16961 ft 387 kts 37°
2026-05-04 23:41 41.36725 -73.15367 17679 ft 391 kts 37°
2026-05-04 23:42 41.38787 -73.13005 18624 ft 383 kts 37°
2026-05-04 23:42 41.40791 -73.10695 19057 ft 377 kts 37°
2026-05-04 23:42 41.42755 -73.08419 19183 ft 373 kts 37°
2026-05-04 23:42 41.44719 -73.06136 19313 ft 375 kts 37°
2026-05-04 23:43 41.46688 -73.03845 19438 ft 375 kts 37°
2026-05-04 23:43 41.48631 -73.01581 19550 ft 376 kts 37°
2026-05-04 23:43 41.50406 -72.98998 19666 ft 383 kts 54°
2026-05-04 23:43 41.51496 -72.95723 19793 ft 391 kts 74°
2026-05-04 23:44 41.51721 -72.92078 20167 ft 398 kts 95°
2026-05-04 23:44 41.51223 -72.88423 20456 ft 399 kts 103°
2026-05-04 23:44 41.50616 -72.84816 20581 ft 398 kts 101°
2026-05-04 23:44 41.50160 -72.81165 20700 ft 399 kts 96°
2026-05-04 23:45 41.49871 -72.77481 20811 ft 400 kts 93°
2026-05-04 23:45 41.49690 -72.73822 20878 ft 401 kts 91°
2026-05-04 23:45 41.49558 -72.70100 20888 ft 400 kts 91°
2026-05-04 23:45 41.49445 -72.66388 20885 ft 406 kts 91°
2026-05-04 23:46 41.49331 -72.62525 20885 ft 425 kts 91°
2026-05-04 23:46 41.49209 -72.58572 20895 ft 426 kts 91°
2026-05-04 23:46 41.49082 -72.54624 20891 ft 425 kts 91°
2026-05-04 23:46 41.48952 -72.50679 20895 ft 425 kts 91°
2026-05-04 23:47 41.48821 -72.46738 20896 ft 425 kts 91°
2026-05-04 23:47 41.48688 -72.42803 20888 ft 425 kts 91°
2026-05-04 23:47 41.48555 -72.38863 20892 ft 425 kts 91°
2026-05-04 23:47 41.48420 -72.34918 20916 ft 425 kts 91°
2026-05-04 23:48 41.48284 -72.31002 20798 ft 420 kts 91°
2026-05-04 23:48 41.48149 -72.27157 20686 ft 409 kts 91°
2026-05-04 23:48 41.48099 -72.23424 20552 ft 395 kts 84°
2026-05-04 23:48 41.48546 -72.19890 20369 ft 379 kts 71°
2026-05-04 23:49 41.49480 -72.16656 19927 ft 372 kts 60°
2026-05-04 23:49 41.50626 -72.13572 19440 ft 370 kts 60°
2026-05-04 23:49 41.51750 -72.10530 19002 ft 369 kts 60°
2026-05-04 23:49 41.52879 -72.07457 18559 ft 367 kts 61°
2026-05-04 23:50 41.53999 -72.04398 18089 ft 365 kts 61°
2026-05-04 23:50 41.55109 -72.01357 17631 ft 363 kts 61°
2026-05-04 23:50 41.56131 -71.98280 17164 ft 361 kts 66°
2026-05-04 23:50 41.57058 -71.95163 16704 ft 359 kts 66°
2026-05-04 23:51 41.57982 -71.92077 16346 ft 354 kts 66°
2026-05-04 23:51 41.58895 -71.89032 16226 ft 355 kts 66°
2026-05-04 23:51 41.59805 -71.85996 16142 ft 357 kts 66°
2026-05-04 23:51 41.60721 -71.82915 15974 ft 354 kts 66°
2026-05-04 23:52 41.61624 -71.79858 15603 ft 353 kts 66°